Weather History for Stevens Point, WI

Change the Weather History Date:

Sunday, February 3, 2013

  Actual Average Record
Temperature  
Mean Temperature 5 °F -  
Max Temperature 12 °F 24 °F 49 °F (1991)
Min Temperature -2 °F 5 °F -23 °F (2014)
Degree Days  
Heating Degree Days 60    
Moisture  
Dew Point -1 °F    
Average Humidity 72    
Maximum Humidity 86    
Minimum Humidity 55    
Precipitation  
Precipitation 0.00 in - - ()
Sea Level Pressure  
Sea Level Pressure 29.93 in    
Wind  
Wind Speed 4 mph (West)    
Max Wind Speed 14 mph    
Max Gust Speed 22 mph    
Visibility 9 miles    
Events Snow    
Averages and records for this station are not official NWS values.
T = Trace of Precipitation, MM = Missing Value Source: NWS Daily Summary

Daily Weather History Graph

Daily Weather History Graph

Search for Another Location

Airport:

Trip Planner

Search our weather history database for the weather conditions in past years. The results will help you decide how hot, cold, wet, or windy it might be!

Date:

Astronomy

Feb. 03, 2013 Rise Set
Actual Time 7:14 AM CST 5:10 PM CST
Civil Twilight 6:43 AM CST 5:41 PM CST
Nautical Twilight 6:08 AM CST 6:16 PM CST
Astronomical Twilight 5:34 AM CST 6:50 PM CST
Moon 12:42 AM CST (2/3) 10:46 AM CST (2/3)
Length of Visible Light 10h 57m
Length of Day
9h 56m
Waning Gibbous, 48% of the Moon is Illuminated
Feb 3
Waning Gibbous
Feb 10
New
Feb 17
First Quarter
Feb 25
Full
Mar 4
Last Quarter

Hourly Weather History & Observations

Time (CST) Temp. Windchill Dew Point Humidity Pressure Visibility Wind Dir Wind Speed Gust Speed Precip Events Conditions
12:15 AM -1.3 °F - -4.9 °F 85% 29.93 in 10.0 mi Calm Calm - N/A Snow Light Snow
12:35 AM -2.0 °F - -5.6 °F 85% 29.93 in 10.0 mi Calm Calm - N/A   Overcast
12:55 AM -2.4 °F - -5.8 °F 85% 29.93 in 3.0 mi Calm Calm - N/A Snow Light Snow
1:15 AM -0.9 °F - -4.4 °F 85% 29.92 in 3.0 mi Calm Calm - N/A Snow Light Snow
1:35 AM -0.8 °F - -4.0 °F 86% 29.92 in 5.0 mi Calm Calm - N/A Snow Light Snow
1:55 AM -0.8 °F - -4.0 °F 86% 29.91 in 10.0 mi Calm Calm - N/A   Overcast
2:15 AM 0.3 °F - -3.3 °F 85% 29.90 in 5.0 mi Calm Calm - N/A Snow Light Snow
2:35 AM 1.8 °F - -1.7 °F 86% 29.89 in 4.0 mi Calm Calm - N/A   Overcast
2:55 AM 3.2 °F - -0.2 °F 86% 29.89 in 2.5 mi Calm Calm - N/A Snow Light Snow
3:15 AM 3.6 °F -5.7 °F 0.1 °F 86% 29.88 in 5.0 mi WSW 4.6 mph - N/A Snow Light Snow
3:55 AM 3.6 °F -3.8 °F 0.1 °F 86% 29.87 in 5.0 mi WSW 3.5 mph - N/A Snow Light Snow
4:15 AM 3.6 °F -5.7 °F -0.0 °F 85% 29.87 in 4.0 mi WSW 4.6 mph - N/A Snow Light Snow
4:35 AM 3.7 °F -5.5 °F 0.3 °F 86% 29.87 in 5.0 mi WSW 4.6 mph - N/A Snow Light Snow
4:55 AM 3.9 °F -5.3 °F 0.3 °F 85% 29.87 in 7.0 mi West 4.6 mph - N/A Snow Light Snow
5:15 AM 4.1 °F -6.7 °F 0.9 °F 86% 29.88 in 5.0 mi West 5.8 mph - N/A Snow Light Snow
5:35 AM 4.3 °F -6.5 °F 0.7 °F 85% 29.87 in 4.0 mi West 5.8 mph - N/A Snow Light Snow
5:55 AM 4.5 °F -6.3 °F 0.7 °F 84% 29.87 in 7.0 mi West 5.8 mph - N/A Snow Light Snow
6:15 AM 4.5 °F -4.7 °F 0.5 °F 84% 29.88 in 4.0 mi West 4.6 mph - N/A Snow Light Snow
6:35 AM 4.8 °F -4.3 °F 1.0 °F 84% 29.88 in 4.0 mi West 4.6 mph - N/A Snow Light Snow
6:55 AM 5.4 °F -1.7 °F 1.4 °F 84% 29.88 in 4.0 mi WNW 3.5 mph - N/A Snow Light Snow
7:15 AM 5.9 °F -4.5 °F 1.0 °F 80% 29.89 in 5.0 mi WNW 5.8 mph - N/A Snow Light Snow
7:35 AM 5.9 °F -5.8 °F 0.5 °F 78% 29.90 in 10.0 mi WNW 6.9 mph - N/A Snow Light Snow
7:55 AM 5.9 °F -7.0 °F 0.1 °F 77% 29.91 in 10.0 mi WNW 8.1 mph - N/A   Overcast
8:15 AM 5.9 °F -7.0 °F -0.4 °F 75% 29.92 in 10.0 mi NW 8.1 mph - N/A   Overcast
8:35 AM 5.9 °F -8.0 °F -0.8 °F 74% 29.92 in 10.0 mi WNW 9.2 mph - N/A   Overcast
8:55 AM 5.9 °F -8.9 °F -1.3 °F 72% 29.91 in 10.0 mi WNW 10.4 mph - N/A   Mostly Cloudy
9:15 AM 6.4 °F -9.8 °F -1.3 °F 71% 29.91 in 10.0 mi NW 12.7 mph 19.6 mph N/A   Mostly Cloudy
9:35 AM 6.4 °F -9.0 °F -0.9 °F 72% 29.93 in 10.0 mi NW 11.5 mph 21.9 mph N/A   Overcast
9:55 AM 6.8 °F -10.0 °F -0.9 °F 71% 29.94 in 10.0 mi WNW 13.8 mph 19.6 mph N/A   Overcast
10:15 AM 6.4 °F -9.0 °F -1.1 °F 71% 29.95 in 7.0 mi WNW 11.5 mph 19.6 mph N/A   Overcast
10:35 AM 6.8 °F -9.3 °F -1.3 °F 69% 29.95 in 10.0 mi NW 12.7 mph 18.4 mph N/A   Mostly Cloudy
10:55 AM 7.5 °F -7.7 °F -1.1 °F 68% 29.94 in 10.0 mi WNW 11.5 mph 17.3 mph N/A   Mostly Cloudy
11:15 AM 8.8 °F -4.4 °F -0.8 °F 65% 29.94 in 10.0 mi West 9.2 mph 16.1 mph N/A   Scattered Clouds
11:35 AM 9.5 °F -5.2 °F -0.8 °F 63% 29.93 in 10.0 mi NW 11.5 mph 18.4 mph N/A   Mostly Cloudy
11:55 AM 9.9 °F -6.1 °F -0.9 °F 62% 29.92 in 10.0 mi West 13.8 mph - N/A   Scattered Clouds
12:15 PM 10.9 °F -3.4 °F -0.6 °F 60% 29.92 in 10.0 mi West 11.5 mph 17.3 mph N/A   Scattered Clouds
12:35 PM 11.1 °F -3.2 °F -0.2 °F 60% 29.92 in 10.0 mi West 11.5 mph 20.7 mph N/A   Scattered Clouds
12:55 PM 11.1 °F -3.2 °F -0.6 °F 59% 29.93 in 10.0 mi West 11.5 mph 20.7 mph N/A   Scattered Clouds
1:15 PM 11.7 °F -2.5 °F -0.2 °F 59% 29.93 in 10.0 mi West 11.5 mph 20.7 mph N/A   Mostly Cloudy
1:35 PM 11.8 °F -0.7 °F -0.0 °F 59% 29.93 in 10.0 mi West 9.2 mph 21.9 mph N/A   Mostly Cloudy
1:55 PM 11.5 °F -4.1 °F -0.0 °F 60% 29.93 in 10.0 mi West 13.8 mph 18.4 mph N/A   Mostly Cloudy
2:15 PM 12.4 °F 0.9 °F 0.7 °F 60% 29.93 in 10.0 mi West 8.1 mph 16.1 mph N/A   Overcast
2:35 PM 12.4 °F -1.6 °F 0.1 °F 58% 29.93 in 10.0 mi West 11.5 mph 18.4 mph N/A   Mostly Cloudy
2:55 PM 12.2 °F -0.2 °F -0.4 °F 57% 29.93 in 10.0 mi West 9.2 mph 20.7 mph N/A   Mostly Cloudy
3:15 PM 12.7 °F 1.4 °F -0.2 °F 56% 29.93 in 10.0 mi WNW 8.1 mph 17.3 mph N/A   Mostly Cloudy
3:35 PM 12.6 °F 0.2 °F -0.8 °F 55% 29.93 in 10.0 mi WNW 9.2 mph 17.3 mph N/A   Scattered Clouds
3:55 PM 12.2 °F -1.8 °F -0.8 °F 56% 29.93 in 10.0 mi West 11.5 mph 17.3 mph N/A   Clear
4:15 PM 12.0 °F -2.7 °F -1.3 °F 55% 29.93 in 10.0 mi West 12.7 mph 18.4 mph N/A   Clear
4:35 PM 11.7 °F -0.9 °F -1.3 °F 56% 29.93 in 10.0 mi West 9.2 mph - N/A   Clear
4:55 PM 10.8 °F 0.0 °F -1.5 °F 58% 29.93 in 10.0 mi West 6.9 mph - N/A   Clear
5:15 PM 10.0 °F 0.4 °F -1.5 °F 60% 29.94 in 10.0 mi West 5.8 mph - N/A   Clear
5:35 PM 9.3 °F 2.8 °F -1.8 °F 61% 29.94 in 10.0 mi West 3.5 mph - N/A   Clear
5:55 PM 8.6 °F 2.0 °F -2.2 °F 62% 29.94 in 10.0 mi West 3.5 mph - N/A   Clear
6:15 PM 7.9 °F - -2.2 °F 64% 29.95 in 10.0 mi Calm Calm - N/A   Clear
6:35 PM 7.2 °F 0.3 °F -2.2 °F 66% 29.95 in 10.0 mi West 3.5 mph - N/A   Clear
6:55 PM 6.3 °F - -2.4 °F 68% 29.95 in 10.0 mi Calm Calm - N/A   Mostly Cloudy
7:15 PM 6.1 °F - -2.9 °F 67% 29.95 in 10.0 mi Calm Calm - N/A   Overcast
7:35 PM 4.3 °F - -2.7 °F 73% 29.96 in 10.0 mi Calm Calm - N/A   Overcast
7:55 PM 6.6 °F - -2.0 °F 68% 29.96 in 10.0 mi Calm Calm - N/A   Overcast
8:15 PM 7.2 °F - -1.7 °F 67% 29.96 in 10.0 mi Calm Calm - N/A   Overcast
8:35 PM 7.5 °F 0.8 °F -1.8 °F 66% 29.96 in 10.0 mi West 3.5 mph - N/A   Overcast
8:55 PM 6.8 °F -0.1 °F -2.2 °F 67% 29.97 in 10.0 mi West 3.5 mph - N/A   Mostly Cloudy
9:15 PM 6.3 °F - -2.2 °F 68% 29.97 in 10.0 mi Calm Calm - N/A   Scattered Clouds
9:35 PM 5.2 °F - -2.6 °F 70% 29.97 in 10.0 mi Calm Calm - N/A   Clear
9:55 PM 1.2 °F - -4.0 °F 79% 29.98 in 10.0 mi Calm Calm - N/A   Clear
10:15 PM 0.5 °F - -4.0 °F 81% 29.96 in 10.0 mi Calm Calm - N/A   Scattered Clouds
10:35 PM 0.1 °F - -3.8 °F 83% 29.97 in 10.0 mi Calm Calm - N/A   Mostly Cloudy
10:55 PM 1.0 °F - -3.5 °F 81% 29.96 in 10.0 mi Calm Calm - N/A   Overcast
11:15 PM 1.6 °F - -2.6 °F 83% 29.96 in 10.0 mi Calm Calm - N/A   Overcast
11:35 PM 2.3 °F - -2.2 °F 81% 29.96 in 10.0 mi Calm Calm - N/A   Overcast
11:55 PM 3.2 °F - -1.8 °F 80% 29.97 in 10.0 mi Calm Calm - N/A   Overcast